St. Joseph, KS

2:56 PM CST on December 17, 2017 (GMT -0600)
Rosecrans Memorial

Weather History for KSTJ - April, 2013

Change the Weather History Date:

Saturday, April 6, 2013

  Actual Average Record
Temperature  
Mean Temperature 62 °F 51 °F  
Max Temperature 74 °F 63 °F 91 °F (1954)
Min Temperature 49 °F 39 °F 18 °F (1982)
Degree Days  
Heating Degree Days 3 14  
Month to date heating degree days 111 89  
Since 1 July heating degree days 5064 5082  
Cooling Degree Days 0 0  
Month to date cooling degree days 0 0  
Year to date cooling degree days 0 2  
Growing Degree Days 12 (Base 50)    
Moisture  
Dew Point 41 °F    
Average Humidity 50    
Maximum Humidity 71    
Minimum Humidity 29    
Precipitation  
Precipitation 0.00 in 0.10 in 0.83 in (1901)
Month to date precipitation 0.00 0.52  
Year to date precipitation 3.09 4.26  
Sea Level Pressure  
Sea Level Pressure 29.72 in    
Wind  
Wind Speed 15 mph (SW)    
Max Wind Speed 30 mph    
Max Gust Speed 36 mph    
Visibility 10 miles    
Events      
T = Trace of Precipitation, MM = Missing Value Source: NWS Daily Summary

Daily Weather History Graph

Daily Weather History Graph

Search for Another Location

Airport or City:

Trip Planner

Search our weather history database for the weather conditions in past years. The results will help you decide how hot, cold, wet, or windy it might be!

Date:

Astronomy

Apr. 06, 2013 Rise Set
Actual Time 6:55 AM CDT 7:49 PM CDT
Civil Twilight 6:28 AM CDT 8:16 PM CDT
Nautical Twilight 5:55 AM CDT 8:49 PM CDT
Astronomical Twilight 5:21 AM CDT 9:23 PM CDT
Moon 4:39 AM CDT (4/6) 4:19 PM CDT (4/6)
Length of Visible Light 13h 48m
Length of Day
12h 53m
Waning Crescent, 15% of the Moon is Illuminated
Apr 6
Waning Crescent
Apr 10
New
Apr 18
First Quarter
Apr 25
Full
May 2
Last Quarter

Hourly Weather History & Observations

Time (CDT) Temp. Dew Point Humidity Pressure Visibility Wind Dir Wind Speed Gust Speed Precip Events Conditions
12:53 AM 60.1 °F 34.0 °F 38% 29.81 in 10.0 mi South 17.3 mph 25.3 mph N/A   Clear
1:53 AM 59.0 °F 37.9 °F 46% 29.78 in 10.0 mi South 25.3 mph 31.1 mph N/A   Clear
2:53 AM 59.0 °F 37.9 °F 46% 29.77 in 10.0 mi South 18.4 mph 23.0 mph N/A   Clear
3:53 AM 59.0 °F 37.9 °F 46% 29.74 in 10.0 mi South 17.3 mph 24.2 mph N/A   Clear
4:53 AM 57.0 °F 39.0 °F 51% 29.72 in 10.0 mi South 18.4 mph 25.3 mph N/A   Clear
5:53 AM 57.0 °F 39.9 °F 53% 29.73 in 10.0 mi South 11.5 mph - N/A   Clear
6:53 AM 55.9 °F 41.0 °F 57% 29.72 in 10.0 mi South 12.7 mph - N/A   Clear
7:53 AM 57.0 °F 42.1 °F 57% 29.70 in 10.0 mi South 15.0 mph - N/A   Clear
8:53 AM 57.9 °F 43.0 °F 58% 29.69 in 10.0 mi South 19.6 mph - N/A   Clear
9:53 AM 62.1 °F 44.1 °F 52% 29.67 in 10.0 mi SSW 26.5 mph 33.4 mph N/A   Clear
10:53 AM 66.0 °F 46.0 °F 48% 29.67 in 10.0 mi SSW 25.3 mph 33.4 mph N/A   Clear
11:53 AM 69.1 °F 46.0 °F 44% 29.65 in 10.0 mi SW 23.0 mph 32.2 mph N/A   Partly Cloudy
12:53 PM 69.1 °F 46.0 °F 44% 29.64 in 10.0 mi SW 23.0 mph 29.9 mph N/A   Partly Cloudy
1:53 PM 71.1 °F 46.0 °F 41% 29.64 in 10.0 mi SW 20.7 mph 32.2 mph N/A   Clear
2:53 PM 73.9 °F 42.1 °F 32% 29.63 in 10.0 mi West 16.1 mph 26.5 mph N/A   Partly Cloudy
3:53 PM 73.0 °F 39.9 °F 30% 29.64 in 10.0 mi West 18.4 mph 26.5 mph N/A   Clear
4:53 PM 73.0 °F 39.9 °F 30% 29.66 in 10.0 mi WNW 21.9 mph 27.6 mph N/A   Scattered Clouds
5:53 PM 71.1 °F 39.9 °F 32% 29.70 in 10.0 mi West 15.0 mph 27.6 mph N/A   Clear
6:53 PM 69.1 °F 39.9 °F 35% 29.72 in 10.0 mi WNW 10.4 mph - N/A   Partly Cloudy
7:53 PM 63.0 °F 39.9 °F 43% 29.75 in 10.0 mi WNW 10.4 mph - N/A   Clear
8:53 PM 60.1 °F 37.9 °F 44% 29.76 in 10.0 mi WSW 3.5 mph - N/A   Clear
9:53 PM 57.9 °F 37.9 °F 47% 29.78 in 10.0 mi Calm Calm - N/A   Clear
10:53 PM 52.0 °F 41.0 °F 66% 29.80 in 10.0 mi SE 4.6 mph - N/A   Clear
11:53 PM 52.0 °F 42.1 °F 69% 29.80 in 10.0 mi Calm Calm - N/A   Clear